Location: Bühlhof
(48.7849°N, 8.6361°E)
Time: 22:10:18
(UTC+00:00)

SL-19 R/B - Pass Details

Date: 19 January 2026
Orbit: 795 x 1008 km, 99.6° (Epoch: 7 February)

Event Time Altitude Azimuth Distance (km) Brightness Sun altitude
Rises 17:56:24 0° 160° (SSE) 3,682 7.4 -18.3°
Reaches altitude 10° 17:58:50 10° 160° (SSE) 2,754 6.8 -18.7°
Maximum altitude 18:05:06 87° 73° (ENE) 1,016 4.5 -19.7°
Drops below altitude 10° 18:11:26 10° 345° (NNW) 2,791 7.0 -20.8°
Sets 18:13:55 0° 345° (NNW) 3,735 7.7 -21.2°
